| time (UTC) | temp F | wind direction | speed MPH | gust MPH | rain 1hr in | rain 24hr in | rain mn in | humidity % | barometer mb |
| 20260904020048 | 52 | 186 | 5.0 | 10.0 | 0.00 | 0.07 | 0.04 | 93 | 1027.4 |
| 20260904014553 | 52 | 80 | 5.0 | 11.0 | 0.01 | 0.07 | 0.04 | 93 | 1027.4 |
| 20260904013047 | 52 | 233 | 7.0 | 14.0 | 0.01 | 0.07 | 0.03 | 93 | 1027.5 |
| 20260904011611 | 52 | 234 | 6.0 | 12.0 | 0.01 | 0.07 | 0.03 | 93 | 1027.5 |
| 20260904010108 | 52 | 222 | 5.0 | 9.0 | 0.03 | 0.07 | 0.03 | 93 | 1027.1 |
| 20260904004550 | 53 | 240 | 5.0 | 13.0 | 0.03 | 0.06 | 0.03 | 93 | 1027.2 |
| 20260904003048 | 53 | 212 | 6.0 | 18.0 | 0.02 | 0.05 | 0.02 | 93 | 1027.0 |
| 20260904001547 | 53 | 249 | 6.0 | 12.0 | 0.02 | 0.05 | 0.02 | 93 | 1026.9 |
| 20260904000100 | 53 | 235 | 3.0 | 9.0 | 0.00 | 0.03 | 0.00 | 93 | 1026.8 |
| 20260903234604 | 53 | 227 | 5.0 | 10.0 | 0.00 | 0.03 | 0.00 | 92 | 1026.9 |
| 20260903233057 | 54 | 17 | 5.0 | 10.0 | 0.00 | 0.03 | 0.00 | 89 | 1026.7 |
| 20260903231558 | 54 | 16 | 3.0 | 8.0 | 0.00 | 0.03 | 0.00 | 88 | 1027.1 |
| 20260903230057 | 54 | 15 | 3.0 | 11.0 | 0.00 | 0.03 | 0.00 | 88 | 1027.1 |
| 20260903224602 | 54 | 15 | 4.0 | 11.0 | 0.00 | 0.03 | 0.00 | 88 | 1026.3 |
| 20260903223045 | 54 | 15 | 5.0 | 11.0 | 0.00 | 0.03 | 0.00 | 87 | 1026.6 |
| 20260903221556 | 54 | 17 | 6.0 | 11.0 | 0.00 | 0.03 | 0.00 | 88 | 1026.0 |
| 20260903220124 | 54 | 15 | 5.0 | 12.0 | 0.00 | 0.03 | 0.00 | 88 | 1025.7 |
| 20260903214550 | 54 | 15 | 4.0 | 9.0 | 0.00 | 0.03 | 0.03 | 89 | 1025.5 |
| 20260903213104 | 54 | 14 | 3.0 | 5.0 | 0.00 | 0.03 | 0.03 | 89 | 1026.0 |
| 20260903211601 | 54 | 15 | 4.0 | 12.0 | 0.00 | 0.03 | 0.03 | 88 | 1025.1 |
| 20260903210105 | 55 | 15 | 5.0 | 10.0 | 0.00 | 0.03 | 0.03 | 88 | 1024.7 |
| 20260903204552 | 55 | 15 | 6.0 | 16.0 | 0.00 | 0.03 | 0.03 | 87 | 1025.3 |
| 20260903203109 | 55 | 15 | 5.0 | 13.0 | 0.00 | 0.03 | 0.03 | 88 | 1025.0 |
| 20260903201553 | 55 | 14 | 5.0 | 12.0 | 0.00 | 0.03 | 0.03 | 89 | 1024.9 |
| 20260903200050 | 54 | 17 | 8.0 | 14.0 | 0.00 | 0.03 | 0.03 | 90 | 1024.1 |
| 20260903194554 | 54 | 15 | 5.0 | 10.0 | 0.00 | 0.03 | 0.03 | 91 | 1023.1 |
| 20260903193100 | 54 | 14 | 6.0 | 12.0 | 0.00 | 0.03 | 0.03 | 90 | 1023.0 |
| 20260903191554 | 55 | 15 | 4.0 | 9.0 | 0.00 | 0.03 | 0.03 | 88 | 1023.5 |
| 20260903190058 | 55 | 192 | 3.0 | 10.0 | 0.00 | 0.03 | 0.03 | 89 | 1023.4 |
| 20260903184557 | 55 | 217 | 5.0 | 16.0 | 0.00 | 0.03 | 0.03 | 88 | 1022.8 |
| 20260903183055 | 55 | 254 | 4.0 | 11.0 | 0.00 | 0.03 | 0.03 | 89 | 1022.7 |
| 20260903181549 | 54 | 230 | 6.0 | 12.0 | 0.00 | 0.03 | 0.03 | 90 | 1022.5 |
| 20260903180054 | 55 | 186 | 6.0 | 11.0 | 0.00 | 0.03 | 0.03 | 89 | 1022.1 |
| 20260903174558 | 55 | 118 | 5.0 | 10.0 | 0.00 | 0.03 | 0.03 | 89 | 1021.8 |
| 20260903173055 | 55 | 17 | 6.0 | 12.0 | 0.00 | 0.03 | 0.03 | 90 | 1021.6 |
| 20260903171601 | 56 | 15 | 7.0 | 16.0 | 0.01 | 0.03 | 0.03 | 89 | 1021.0 |
| 20260903170046 | 56 | 13 | 8.0 | 16.0 | 0.01 | 0.03 | 0.03 | 89 | 1020.6 |
| 20260903164602 | 56 | 13 | 8.0 | 14.0 | 0.02 | 0.03 | 0.03 | 90 | 1020.3 |
| 20260903163101 | 56 | 15 | 7.0 | 12.0 | 0.02 | 0.03 | 0.03 | 91 | 1019.7 |
| 20260903161550 | 57 | 246 | 5.0 | 11.0 | 0.00 | 0.01 | 0.01 | 93 | 1019.3 |
| 20260903160051 | 57 | 202 | 5.0 | 11.0 | 0.00 | 0.01 | 0.01 | 92 | 1018.8 |
| 20260903154559 | 57 | 200 | 5.0 | 18.0 | 0.00 | 0.00 | 0.00 | 90 | 1018.5 |
| 20260903153054 | 58 | 223 | 6.0 | 14.0 | 0.00 | 0.00 | 0.00 | 87 | 1018.3 |
| 20260903151549 | 59 | 205 | 5.0 | 14.0 | 0.00 | 0.00 | 0.00 | 85 | 1018.1 |
| 20260903150059 | 61 | 209 | 6.0 | 12.0 | 0.00 | 0.00 | 0.00 | 81 | 1018.1 |
| 20260903144607 | 61 | 235 | 4.0 | 9.0 | 0.00 | 0.00 | 0.00 | 81 | 1018.0 |
| 20260903143056 | 61 | 237 | 3.0 | 13.0 | 0.00 | 0.00 | 0.00 | 81 | 1017.7 |
| 20260903141555 | 62 | 230 | 5.0 | 10.0 | 0.00 | 0.00 | 0.00 | 81 | 1017.6 |
| 20260903134542 | 60 | 217 | 2.0 | 5.0 | 0.00 | 0.00 | 0.00 | 89 | 1017.2 |
| 20260903133101 | 60 | 232 | 4.0 | 12.0 | 0.00 | 0.00 | 0.00 | 88 | 1016.8 |
| 20260903131553 | 61 | 232 | 5.0 | 10.0 | 0.00 | 0.00 | 0.00 | 85 | 1016.4 |
| 20260903130051 | 61 | 208 | 5.0 | 9.0 | 0.00 | 0.00 | 0.00 | 86 | 1016.3 |
| 20260903124553 | 61 | 194 | 4.0 | 8.0 | 0.00 | 0.00 | 0.00 | 89 | 1016.3 |
| 20260903123058 | 62 | 197 | 4.0 | 11.0 | 0.00 | 0.00 | 0.00 | 85 | 1016.2 |
| 20260903121546 | 63 | 337 | 2.0 | 6.0 | 0.00 | 0.00 | 0.00 | 81 | 1016.2 |
| 20260903114558 | 63 | 202 | 5.0 | 12.0 | 0.00 | 0.00 | 0.00 | 81 | 1016.4 |
| 20260903113131 | 63 | 207 | 4.0 | 9.0 | 0.00 | 0.00 | 0.00 | 81 | 1016.3 |
| 20260903111549 | 62 | 238 | 4.0 | 9.0 | 0.00 | 0.00 | 0.00 | 82 | 1016.3 |
| 20260903110100 | 62 | 189 | 3.0 | 8.0 | 0.00 | 0.00 | 0.00 | 82 | 1016.1 |
| 20260903104557 | 61 | 185 | 2.0 | 4.0 | 0.00 | 0.00 | 0.00 | 82 | 1016.3 |
| 20260903103052 | 61 | 190 | 1.0 | 2.0 | 0.00 | 0.00 | 0.00 | 81 | 1016.2 |
| 20260903101547 | 61 | 0 | 0.0 | 2.0 | 0.00 | 0.00 | 0.00 | 82 | 1016.4 |
| 20260903100047 | 61 | 220 | 1.0 | 4.0 | 0.00 | 0.00 | 0.00 | 84 | 1016.5 |
| 20260903094558 | 60 | 196 | 1.0 | 3.0 | 0.00 | 0.00 | 0.00 | 85 | 1016.6 |
| 20260903093051 | 59 | 278 | 1.0 | 3.0 | 0.00 | 0.00 | 0.00 | 87 | 1016.8 |
| 20260903091551 | 59 | 352 | 1.0 | 5.0 | 0.00 | 0.00 | 0.00 | 87 | 1016.8 |
| 20260903090050 | 59 | 346 | 2.0 | 4.0 | 0.00 | 0.00 | 0.00 | 89 | 1017.0 |
| 20260903084548 | 58 | 343 | 1.0 | 3.0 | 0.00 | 0.00 | 0.00 | 92 | 1016.9 |
| 20260903083056 | 57 | 337 | 1.0 | 4.0 | 0.00 | 0.00 | 0.00 | 92 | 1016.9 |
| 20260903081549 | 57 | 360 | 0.0 | 2.0 | 0.00 | 0.00 | 0.00 | 93 | 1017.0 |
| 20260903080049 | 56 | 352 | 2.0 | 2.0 | 0.00 | 0.00 | 0.00 | 93 | 1017.0 |
| 20260903074557 | 56 | 15 | 1.0 | 2.0 | 0.00 | 0.00 | 0.00 | 94 | 1016.9 |
| 20260903073056 | 56 | 351 | 0.0 | 2.0 | 0.00 | 0.00 | 0.00 | 93 | 1016.8 |
| 20260903071559 | 56 | 186 | 0.0 | 2.0 | 0.00 | 0.00 | 0.00 | 94 | 1016.7 |
| 20260903070047 | 56 | 0 | 0.0 | 1.0 | 0.00 | 0.00 | 0.00 | 94 | 1016.4 |
| 20260903064600 | 55 | 0 | 0.0 | 2.0 | 0.00 | 0.00 | 0.00 | 94 | 1016.2 |
| 20260903063053 | 55 | 0 | 0.0 | 2.0 | 0.00 | 0.00 | 0.00 | 94 | 1016.2 |
| 20260903061558 | 55 | 186 | 1.0 | 2.0 | 0.00 | 0.00 | 0.00 | 93 | 1016.1 |
| 20260903060104 | 55 | 194 | 1.0 | 3.0 | 0.00 | 0.00 | 0.00 | 94 | 1015.7 |
| 20260903054556 | 55 | 198 | 0.0 | 2.0 | 0.00 | 0.00 | 0.00 | 94 | 1015.5 |
| 20260903053053 | 55 | 194 | 1.0 | 4.0 | 0.00 | 0.00 | 0.00 | 94 | 1015.1 |
| 20260903051607 | 55 | 221 | 0.0 | 2.0 | 0.00 | 0.00 | 0.00 | 94 | 1014.8 |
| 20260903050055 | 55 | 196 | 0.0 | 2.0 | 0.00 | 0.00 | 0.00 | 94 | 1014.5 |
| 20260903044559 | 55 | 0 | 0.0 | 2.0 | 0.00 | 0.00 | 0.00 | 94 | 1014.2 |
| 20260903043145 | 55 | 192 | 0.0 | 2.0 | 0.00 | 0.00 | 0.00 | 94 | 1013.9 |
| 20260903041549 | 55 | 0 | 0.0 | 2.0 | 0.00 | 0.00 | 0.00 | 94 | 1014.2 |
| 20260903040047 | 55 | 192 | 1.0 | 3.0 | 0.00 | 0.00 | 0.00 | 94 | 1013.8 |
| 20260903034551 | 55 | 238 | 1.0 | 5.0 | 0.00 | 0.00 | 0.00 | 94 | 1014.4 |
| 20260903033049 | 55 | 186 | 2.0 | 3.0 | 0.00 | 0.00 | 0.00 | 94 | 1014.1 |
| 20260903031545 | 55 | 197 | 1.0 | 2.0 | 0.00 | 0.00 | 0.00 | 94 | 1013.9 |
| 20260903030046 | 55 | 202 | 1.0 | 3.0 | 0.00 | 0.00 | 0.00 | 94 | 1014.2 |
| 20260903024551 | 55 | 180 | 1.0 | 3.0 | 0.00 | 0.00 | 0.00 | 94 | 1014.3 |
| 20260903023045 | 54 | 219 | 2.0 | 5.0 | 0.00 | 0.00 | 0.00 | 94 | 1014.2 |
| 20260903021554 | 54 | 198 | 1.0 | 3.0 | 0.00 | 0.00 | 0.00 | 94 | 1014.2 |